We try to provide you some weather data from local stations. This data is not for flight planning purposes!

Weather at LROD – Oradea airport (8,5NM / 16km SW of our airfield)

METAR

LROD 250700Z 35004KT 1200 R19/1600U BR BKN001 01/01 Q1029 R01/19//95

TAF

TAF LROD 312030Z 3121/0203 CNL

Temperature

19

QNH

1029

Weather forcasts

Topweather forecast for Ineu, Bihor

Forcast from wetterzentrale.de

Wind animation

Ventusky

Satelite images

Meteo Romania – Precipitation / Radar image

Meteo Romania – Cloud coverage

Sat 24 – Precipitation / Radar image

Sat 24 – Cloud coverage

Soaring forecast

RASP Forecast by Dragos

fcst24